Location: Glencliff
(36.1226°N, 86.7183°W)
Time: 18:33:38
(UTC+00:00)

Cosmos 2227 Rocket - Pass Details

Date: 25 August 2019
Orbit: 837 x 847 km, 71.0° (Epoch: 15 October)

Event Time Altitude Azimuth Distance (km) Brightness Sun altitude
Exits shadow 08:08:58 20° 328° (NNW) 1,873 4.1 -32.7°
Drops below altitude 10° 08:11:34 10° 354° (N) 2,462 5.0 -32.3°
Sets 08:14:35 0° 9° (N) 3,403 6.1 -31.9°
